Theta_e
318 318 318 317 317 317 317 317 317 318 318 319 320 320 321 321 320 321 311 315 320 332 330 321 320 315 315 311 311 311 300 299 302 303 304 309 307 311 313 310 311 312 312 315 318
318 318 318 318 318 318 318 318 318 318 319 319 320 320 321 321 319 313 320 322 331 333 321 315 312 313 311 309 309 305 301 302 307 306 304 306 306 307 307 307 307 309 313 316 316
318 318 318 318 318 318 318 318 318 319 319 319 319 320 321 321 316 314 328 329 330 329 322 320 317 313 309 310 309 308 302 307 307 308 308 306 306 309 306 304 308 308 311 313 314
318 318 317 318 318 318 318 318 319 319 319 319 319 320 322 320 303 317 332 331 332 325 322 316 315 311 308 305 310 303 307 308 307 308 307 305 308 306 307 307 310 311 312 312 312
318 317 317 317 317 318 318 318 318 319 318 318 319 320 322 317 312 323 332 329 325 323 316 313 311 310 306 308 308 306 308 310 309 308 308 309 307 307 308 311 313 313 312 311 313
318 317 317 317 317 317 317 318 318 318 318 318 319 320 322 311 318 326 323 321 320 318 314 314 312 312 308 307 307 309 309 308 308 308 309 307 307 307 308 312 311 311 311 312 311
318 317 317 317 317 317 318 318 318 317 318 319 320 321 316 312 318 321 320 319 320 319 314 315 315 310 311 306 311 310 304 306 308 310 309 310 305 305 311 313 311 312 313 314 316
317 317 317 317 317 317 318 318 318 318 319 320 321 322 314 319 319 317 319 318 320 320 317 318 317 312 308 310 308 305 306 301 308 309 309 308 300 308 312 311 310 311 312 314 315
317 316 316 316 317 317 317 317 317 319 320 321 320 320 312 317 313 316 317 314 314 316 317 317 314 310 310 305 303 305 299 302 303 308 307 306 302 308 312 312 311 312 313 314 315
316 315 316 316 316 316 316 316 320 319 321 323 320 312 315 308 312 315 318 315 312 313 312 312 309 307 307 304 297 298 297 299 299 305 306 304 304 308 312 312 313 314 315 316 317
316 315 315 315 315 315 315 317 316 315 315 314 311 308 310 313 315 313 315 313 314 311 305 310 304 300 306 305 303 301 300 299 303 307 305 304 304 307 312 313 312 314 314 316 318
315 315 315 315 314 315 315 315 313 314 307 314 315 311 314 313 307 311 314 307 306 303 307 305 301 307 307 305 302 302 300 300 304 307 305 304 304 309 312 312 313 313 313 313 314
314 314 314 314 313 314 317 316 319 318 307 312 314 308 310 311 307 308 310 308 305 303 305 302 304 308 305 302 301 302 300 300 300 304 306 305 303 306 311 313 314 315 316 316 316
313 314 313 312 312 318 316 319 320 320 303 307 306 308 310 310 306 312 312 308 306 303 304 303 307 304 303 301 303 298 303 303 301 300 295 304 295 304 307 309 311 311 312 314 316
313 313 313 311 317 316 317 320 321 319 296 305 305 314 311 306 307 307 313 309 304 304 303 300 302 302 300 302 304 300 305 303 303 300 299 300 299 302 307 304 306 309 311 312 314
312 313 312 315 318 322 319 321 321 305 295 302 306 305 305 306 306 307 308 311 312 305 306 305 309 306 303 304 305 306 303 303 303 300 295 299 296 297 302 303 306 309 310 312 313
311 312 311 317 316 320 319 315 303 298 305 301 301 304 303 302 303 304 304 303 300 296 297 302 304 306 306 302 305 303 301 293 291 291 290 298 295 299 305 308 308 307 309 310 314
309 308 317 319 322 320 317 308 297 304 302 305 303 303 300 302 303 303 302 300 303 301 297 294 294 302 306 303 299 300 301 290 282 286 289 298 294 299 308 310 309 309 308 308 308
307 320 319 325 322 319 310 299 300 302 303 301 302 300 299 303 302 302 302 300 301 302 294 294 294 302 305 305 304 300 297 302 291 296 291 295 299 306 307 307 307 307 307 305 308
311 317 319 322 322 317 306 299 303 305 304 303 297 300 296 300 299 300 301 302 300 303 303 298 292 301 304 306 306 302 305 296 296 284 284 290 293 296 300 303 305 304 304 304 307
314 312 319 321 320 311 303 303 304 306 305 301 299 298 300 299 300 300 300 302 303 302 303 301 299 297 302 300 299 301 297 300 299 297 286 285 291 303 303 304 304 305 305 304 305
316 307 318 318 308 310 304 305 298 304 306 304 303 302 300 301 300 300 300 302 305 303 297 301 296 292 296 305 306 304 300 299 294 291 292 290 291 307 306 307 307 305 305 305 306
311 311 319 319 305 305 307 303 304 302 303 302 301 304 304 301 299 302 302 307 305 302 300 301 296 291 294 300 304 299 301 300 301 300 293 287 292 307 307 308 307 304 304 304 305
312 305 311 314 311 306 304 304 301 306 303 303 303 305 303 301 304 301 302 305 306 305 308 305 299 295 290 294 299 296 299 301 300 293 293 294 296 301 304 304 306 304 304 303 304
313 307 307 304 306 305 306 304 301 301 304 305 303 303 302 298 301 301 303 303 306 303 304 305 295 298 298 299 300 299 299 299 298 298 293 297 297 301 305 304 306 304 304 303 303
305 304 306 303 307 305 301 304 302 302 302 301 302 303 303 300 302 300 302 302 301 304 302 305 296 299 296 300 299 298 301 301 300 299 299 299 298 305 308 309 307 304 303 301 302
313 312 308 304 305 303 304 305 301 303 305 305 304 303 302 304 307 307 306 306 306 303 301 301 299 296 292 299 298 293 297 299 300 302 301 294 300 304 305 305 305 304 303 302 302
Wind_Speed
12 11 10 10 9 9 9 9 10 11 12 14 15 16 17 18 20 9 11 5 8 13 12 16 16 2 9 12 5 11 8 12 17 13 12 17 12 5 3 12 8 16 17 15 20
12 11 10 10 10 10 10 11 11 11 13 14 15 16 15 17 15 10 4 2 10 14 17 10 9 6 10 8 4 7 9 13 11 11 12 14 13 14 15 15 16 16 20 18 19
12 11 11 11 11 10 10 11 12 12 13 13 15 16 15 15 12 9 9 5 9 15 18 16 11 7 10 2 8 3 11 15 12 11 11 13 14 14 15 16 16 16 16 18 17
13 12 11 11 11 12 11 11 11 12 13 13 14 15 17 8 5 8 11 7 11 16 18 9 13 10 9 6 4 8 12 12 10 11 13 14 15 17 17 18 17 17 17 16 18
14 12 11 11 11 12 12 12 12 12 12 13 12 12 10 9 4 11 10 11 13 16 12 10 12 10 12 16 9 13 15 13 10 15 15 17 19 20 21 19 18 19 18 17 15
15 14 13 12 12 12 12 12 12 12 13 13 12 13 7 13 6 15 9 5 14 11 10 11 9 10 11 13 13 16 18 15 18 20 18 19 17 15 19 19 18 17 16 15 15
16 15 15 13 12 12 12 12 11 12 13 13 10 8 13 5 9 3 8 10 8 9 10 12 12 11 15 17 16 14 17 18 22 18 13 13 19 20 22 18 14 12 13 14 14
18 16 14 15 15 13 13 12 13 14 13 13 9 8 9 4 5 9 6 10 13 6 10 9 10 12 13 16 19 21 20 18 8 12 10 10 21 16 16 15 14 15 14 13 13
20 19 17 16 15 14 13 13 14 12 12 9 8 8 14 4 7 14 12 9 11 12 12 8 8 12 13 14 14 22 16 16 16 19 18 20 20 18 19 20 18 17 18 15 15
22 21 19 18 17 15 13 9 7 11 10 9 11 12 11 8 11 9 9 13 15 11 13 16 12 15 15 14 12 17 19 18 18 19 19 20 21 19 19 21 20 18 17 16 15
22 22 21 19 18 14 12 6 5 7 11 14 10 7 10 10 12 4 9 13 11 8 14 10 8 12 15 11 14 15 17 20 20 17 18 18 22 23 22 16 15 11 13 13 13
23 23 22 21 18 13 7 8 12 10 13 16 7 7 9 5 15 5 11 12 14 13 14 11 16 11 9 10 14 16 19 19 17 16 18 21 25 25 15 9 12 15 13 11 11
23 23 23 22 17 8 12 5 8 9 8 8 4 6 5 9 9 8 11 13 14 13 11 13 16 8 9 12 16 16 16 16 19 20 20 25 19 15 10 10 18 22 19 17 14
24 23 23 27 5 11 4 10 10 5 7 8 4 5 9 6 4 8 6 9 12 15 16 11 8 7 11 12 12 13 17 17 20 20 16 20 13 13 11 8 12 16 20 22 23
24 25 26 8 11 7 7 8 10 2 6 4 2 3 10 0 9 4 3 5 13 16 9 16 19 14 11 10 12 17 15 19 23 23 20 17 9 7 6 11 15 17 18 21 21
27 26 22 2 7 14 10 7 6 7 4 7 3 8 12 7 11 4 9 9 12 15 19 16 14 15 5 11 18 23 12 19 20 18 10 4 16 9 9 13 17 19 23 24 24
30 31 17 9 8 10 8 6 7 6 3 6 9 13 13 6 10 8 13 9 8 13 17 21 9 9 2 12 14 17 12 6 6 7 10 23 12 9 9 15 19 24 26 27 26
33 33 7 8 9 8 7 8 9 10 13 12 12 18 15 5 7 12 14 6 13 13 15 12 9 18 20 13 13 19 4 2 4 9 16 22 4 8 3 18 22 24 25 23 24
33 7 7 6 4 4 7 7 6 10 10 10 14 11 10 12 11 12 14 7 8 10 9 13 13 25 19 6 13 9 9 7 3 9 8 9 3 12 22 22 27 27 24 24 23
11 8 4 3 3 5 7 13 3 7 9 8 11 8 14 13 13 14 10 8 4 7 12 11 18 13 14 17 11 2 6 6 3 4 7 10 14 8 24 21 26 27 22 24 22
5 6 7 5 4 7 8 6 5 7 7 7 11 11 12 11 15 14 9 9 6 9 12 15 10 15 16 15 7 10 3 8 5 4 3 7 8 11 17 21 23 24 20 24 24
6 5 6 4 7 7 5 6 3 5 4 4 6 8 8 12 12 14 10 9 9 9 12 9 7 12 22 12 10 10 14 11 4 6 5 4 8 16 19 21 21 21 20 24 24
8 8 6 4 6 4 6 1 0 6 7 5 6 7 10 10 11 10 8 8 6 7 6 8 6 11 12 2 8 18 17 15 11 5 7 3 7 17 18 20 20 19 20 22 23
7 4 2 2 2 7 7 2 4 3 6 1 8 9 8 12 11 11 16 10 15 11 8 4 6 7 6 17 20 19 20 18 8 4 7 10 18 19 21 20 19 18 17 21 21
6 4 3 6 5 8 6 9 8 4 2 7 5 5 11 11 15 15 16 17 17 6 4 3 6 14 15 20 23 20 22 13 11 8 3 14 16 18 20 18 16 11 16 19 21
6 6 8 10 6 8 4 8 4 6 6 11 6 9 10 12 14 16 17 15 8 12 10 6 14 16 16 23 20 20 19 11 8 11 15 13 16 15 18 18 13 12 16 18 19
9 8 6 9 10 6 3 6 8 9 8 5 7 11 13 13 14 18 18 17 16 16 14 13 8 11 18 21 21 8 11 4 9 11 10 11 16 16 19 18 8 14 14 16 17
Wind_Direction
3 358 353 349 346 339 332 330 328 328 327 326 327 332 334 335 313 246 39 3 320 315 316 284 283 268 253 253 234 266 263 258 260 285 338 353 349 330 171 266 286 291 293 299 301
0 356 349 343 338 338 335 330 328 326 323 324 327 329 333 330 298 69 124 286 302 303 305 350 345 314 251 243 252 244 241 263 23 349 331 329 328 314 310 294 279 270 276 269 274
358 351 345 337 331 330 329 326 323 321 320 323 326 327 326 319 286 94 175 209 274 288 286 284 278 270 282 212 230 276 259 327 331 343 329 311 300 296 289 278 277 278 280 288 290
358 350 342 333 325 322 319 317 315 313 313 316 321 322 320 283 9 94 163 200 251 274 284 328 323 312 281 254 184 273 279 294 310 311 302 294 296 287 280 279 285 283 280 278 282
357 350 338 329 322 317 313 310 306 304 301 302 309 317 311 248 38 137 159 214 251 263 319 332 319 339 295 330 299 287 279 276 292 286 281 281 278 280 277 276 272 270 271 266 267
355 349 339 329 319 312 307 301 298 299 297 296 307 316 259 271 1 147 202 253 260 308 329 308 338 328 293 268 287 298 300 295 290 281 275 272 284 298 285 284 277 265 255 253 255
357 347 339 328 318 310 304 298 291 286 283 286 307 298 284 306 342 283 272 260 285 298 307 310 330 305 307 300 269 300 293 283 266 251 248 263 269 257 263 267 254 264 272 273 262
355 349 341 331 319 308 301 292 288 280 279 279 292 282 269 112 331 319 326 308 309 262 270 284 289 302 279 273 273 269 263 263 304 203 253 267 275 278 274 276 288 283 280 261 240
352 347 341 334 322 309 300 294 286 274 258 278 262 222 286 151 345 335 301 328 308 282 287 236 252 272 278 264 264 258 235 295 318 322 310 286 282 284 278 269 268 260 264 237 241
350 345 339 332 325 310 294 268 307 291 221 254 256 280 245 343 349 324 275 325 298 298 280 232 229 253 245 245 291 336 318 312 300 300 289 283 289 297 309 299 287 280 273 268 254
346 344 339 333 322 319 315 251 238 209 226 271 307 277 322 347 301 326 336 313 288 263 269 272 262 277 304 3 321 304 290 288 285 298 332 315 307 294 282 280 309 341 328 322 337
343 341 338 333 323 317 282 291 15 302 307 293 258 269 255 283 298 344 343 329 318 293 292 264 237 260 9 316 298 288 284 289 309 335 318 297 283 273 288 339 324 291 333 353 326
338 337 337 332 323 279 247 0 321 320 285 304 181 291 319 287 340 309 336 332 314 299 309 310 292 335 308 300 300 296 300 318 320 308 289 284 292 320 330 15 22 3 2 349 338
335 333 335 328 294 320 333 348 318 15 275 141 182 109 283 331 237 2 354 328 305 320 318 292 264 304 304 305 311 313 320 313 303 299 298 298 299 309 40 27 11 353 347 342 334
333 330 327 319 308 296 355 340 334 219 278 98 96 16 264 180 294 110 334 288 297 326 304 286 313 310 311 330 328 292 298 300 288 296 288 284 305 293 7 18 3 356 348 335 322
328 325 333 145 220 264 339 346 261 243 229 132 284 323 323 331 338 283 307 232 280 318 295 256 268 263 332 309 287 300 294 313 311 276 265 345 335 313 47 7 351 346 338 336 326
324 316 313 296 275 352 330 273 257 245 113 61 341 330 315 339 328 335 316 325 18 342 340 312 23 92 161 307 323 336 3 332 310 342 314 335 323 55 28 354 359 346 342 337 327
322 310 262 229 270 338 293 266 264 310 37 8 339 299 289 16 346 320 318 332 35 359 315 355 340 8 343 319 318 305 97 141 283 323 313 302 294 20 317 358 352 351 345 343 327
317 303 227 205 341 297 273 258 308 17 0 343 322 342 344 346 349 344 337 53 19 4 356 313 318 323 301 326 309 333 4 350 150 276 279 282 19 194 7 355 350 342 345 341 326
317 295 65 16 78 271 262 258 4 50 358 336 307 352 332 344 343 329 334 73 18 353 346 313 306 310 322 303 290 24 298 327 17 308 299 317 310 7 350 354 346 344 345 332 324
261 261 85 323 245 249 253 7 7 64 26 335 340 320 324 348 334 336 334 74 24 338 326 320 322 311 298 310 327 242 1 312 351 289 306 300 305 20 4 353 347 339 347 332 328
300 286 47 324 250 230 39 24 355 348 315 311 299 308 337 335 326 315 339 2 354 329 328 352 301 301 304 315 301 36 348 337 335 291 224 251 273 5 360 351 349 333 343 336 328
296 293 90 278 304 353 85 285 274 322 338 323 308 313 333 309 320 324 326 309 7 294 9 355 331 323 326 123 340 339 325 314 299 301 277 308 282 319 354 351 358 342 341 335 332
279 301 86 202 52 335 6 275 299 149 295 253 294 295 302 335 302 318 294 353 343 354 107 105 293 303 275 293 294 301 298 293 310 289 317 290 319 335 352 345 354 344 339 334 338
251 41 24 321 45 334 310 311 293 314 311 297 285 239 352 323 315 304 345 337 325 140 211 242 290 289 309 303 287 284 283 296 295 337 288 314 321 338 344 336 355 339 340 339 344
335 345 353 289 276 296 252 291 304 320 322 306 262 330 322 306 310 323 323 315 310 312 338 295 295 306 302 295 307 318 26 349 0 330 327 328 331 341 329 335 352 350 347 344 346
17 334 287 299 275 260 37 346 318 313 295 282 332 311 303 316 329 303 292 279 269 278 284 284 299 309 295 302 307 38 220 10 346 3 5 354 336 312 338 338 7 353 354 345 342